EW4164 Weather Reports


time (UTC)temp
C
wind
direction
speed
KPH
gust
KPH
rain 1hr
cm
rain 24hr
cm
rain mn
cm
humidity
%
barometer
mb
20260903011517 15 225 4.8 9.7 0.00 0.00 0.00 80 1022.3
20260903010517 15 223 4.8 8.0 0.00 0.00 0.00 79 1022.3
20260903005517 15 230 4.8 8.0 0.00 0.00 0.00 79 1022.3
20260903004517 15 224 3.2 8.0 0.00 0.00 0.00 79 1022.4
20260903003517 15 225 4.8 9.7 0.00 0.00 0.00 79 1022.3
20260903002537 15 225 4.8 11.3 0.00 0.00 0.00 78 1022.2
20260903001517 15 225 4.8 8.0 0.00 0.00 0.00 78 1022.2
20260903000517 15 220 3.2 8.0 0.00 0.00 0.00 78 1022.3
20260902235517 15 226 4.8 11.3 0.00 0.00 0.00 78 1022.4
20260902234517 15 226 4.8 9.7 0.00 0.00 0.00 78 1022.5
20260902233517 15 226 6.4 12.9 0.00 0.00 0.00 78 1022.5
20260902232517 15 228 6.4 11.3 0.00 0.00 0.00 77 1022.5
20260902231537 15 230 6.4 11.3 0.00 0.00 0.00 77 1022.4
20260902230517 15 217 4.8 11.3 0.00 0.00 0.00 76 1022.4
20260902225517 16 223 4.8 9.7 0.00 0.00 0.00 76 1022.4
20260902224537 16 231 4.8 9.7 0.00 0.00 0.00 76 1022.4
20260902223517 16 225 4.8 11.3 0.00 0.00 0.00 75 1022.4
20260902222517 16 228 4.8 11.3 0.00 0.00 0.00 75 1022.4
20260902221517 16 228 4.8 9.7 0.00 0.00 0.00 74 1022.4
20260902220517 16 233 4.8 9.7 0.00 0.00 0.00 74 1022.3
20260902215537 16 229 4.8 11.3 0.00 0.00 0.00 74 1022.2
20260902214517 16 232 4.8 12.9 0.00 0.00 0.00 73 1022.2
20260902213517 16 233 4.8 11.3 0.00 0.00 0.00 73 1022.1
20260902212517 16 226 4.8 9.7 0.00 0.00 0.00 73 1022.0
20260902211517 17 228 4.8 8.0 0.00 0.00 0.00 72 1022.0
20260902210657 17 230 4.8 9.7 0.00 0.00 0.00 72 1022.0
20260902205517 17 226 4.8 8.0 0.00 0.00 0.00 71 1022.0
20260902204517 17 228 4.8 9.7 0.00 0.00 0.00 71 1021.9
20260902203518 17 229 4.8 8.0 0.00 0.00 0.00 71 1021.9
20260902202517 17 226 3.2 8.0 0.00 0.00 0.00 70 1021.9
20260902201517 17 229 4.8 8.0 0.00 0.00 0.00 69 1021.9
20260902200517 18 225 4.8 6.4 0.00 0.00 0.00 69 1021.8
20260902195517 18 220 4.8 8.0 0.00 0.00 0.00 68 1021.9
20260902194517 18 231 4.8 8.0 0.00 0.00 0.00 68 1021.8
20260902193517 18 231 3.2 8.0 0.00 0.00 0.00 68 1021.7
20260902192518 18 223 3.2 6.4 0.00 0.00 0.00 67 1021.6
20260902191517 18 226 3.2 6.4 0.00 0.00 0.00 67 1021.5
20260902190517 19 222 3.2 6.4 0.00 0.00 0.00 66 1021.5
20260902185517 19 222 3.2 6.4 0.00 0.00 0.00 65 1021.4
20260902184658 19 228 3.2 4.8 0.00 0.00 0.00 64 1021.3
20260902183517 20 225 3.2 4.8 0.00 0.00 0.00 64 1021.1
20260902182517 20 224 3.2 4.8 0.00 0.00 0.00 62 1021.0
20260902181517 21 224 1.6 3.2 0.00 0.00 0.00 60 1021.0
20260902180517 21 225 1.6 3.2 0.00 0.00 0.00 57 1021.0
20260902175517 22 225 0.0 1.6 0.00 0.00 0.00 55 1020.9
20260902174517 22 225 0.0 6.4 0.00 0.00 0.00 53 1020.8
20260902173517 22 245 1.6 3.2 0.00 0.00 0.00 52 1020.7
20260902172517 23 243 1.6 4.8 0.00 0.00 0.00 51 1020.7
20260902171536 23 233 3.2 11.3 0.00 0.00 0.00 49 1020.6
20260902170517 23 220 3.2 9.7 0.00 0.00 0.00 49 1020.6
20260902165517 23 233 3.2 12.9 0.00 0.00 0.00 48 1020.6
20260902164517 23 217 4.8 11.3 0.00 0.00 0.00 48 1020.6
20260902163517 23 261 1.6 6.4 0.00 0.00 0.00 48 1020.5
20260902162517 23 230 1.6 6.4 0.00 0.00 0.00 49 1020.6
20260902161537 23 239 3.2 11.3 0.00 0.00 0.00 49 1020.6
20260902160517 23 228 3.2 9.7 0.00 0.00 0.00 48 1020.6
20260902155517 23 220 4.8 12.9 0.00 0.00 0.00 47 1020.6
20260902154517 24 221 4.8 12.9 0.00 0.00 0.00 47 1020.6
20260902153517 24 233 4.8 16.1 0.00 0.00 0.00 46 1020.6
20260902152517 24 241 6.4 20.9 0.00 0.00 0.00 46 1020.6
20260902151517 24 222 3.2 11.3 0.00 0.00 0.00 47 1020.6
20260902150517 25 230 6.4 14.5 0.00 0.00 0.00 46 1020.8
20260902145517 25 225 6.4 16.1 0.00 0.00 0.00 47 1020.8
20260902144517 25 228 4.8 14.5 0.00 0.00 0.00 45 1020.7
20260902143537 25 219 6.4 14.5 0.00 0.00 0.00 46 1020.8
20260902142517 25 230 4.8 14.5 0.00 0.00 0.00 46 1020.8
20260902141517 25 228 4.8 22.5 0.00 0.00 0.00 47 1020.7
20260902140517 25 217 4.8 16.1 0.00 0.00 0.00 47 1020.7
20260902135516 25 219 8.0 17.7 0.00 0.00 0.00 46 1020.8
20260902134517 25 216 6.4 17.7 0.00 0.00 0.00 46 1020.8
20260902133517 25 222 4.8 17.7 0.00 0.00 0.00 46 1020.7
20260902132517 25 198 4.8 16.1 0.00 0.00 0.00 49 1020.7
20260902131536 25 218 4.8 14.5 0.00 0.00 0.00 49 1020.7
20260902130557 25 230 4.8 14.5 0.00 0.00 0.00 50 1020.9
20260902125517 24 224 4.8 14.5 0.00 0.00 0.00 50 1020.9
20260902124517 24 226 4.8 12.9 0.00 0.00 0.00 51 1020.9
20260902123517 23 213 4.8 16.1 0.00 0.00 0.00 52 1021.0
20260902122517 23 222 4.8 14.5 0.00 0.00 0.00 52 1021.1
20260902121517 23 225 4.8 16.1 0.00 0.00 0.00 53 1021.1
20260902120517 23 272 4.8 16.1 0.00 0.00 0.00 53 1021.1
20260902115517 23 264 4.8 17.7 0.00 0.00 0.00 52 1021.0
20260902114522 23 241 4.8 9.7 0.00 0.00 0.00 54 1021.1
20260902113517 23 231 4.8 16.1 0.00 0.00 0.00 55 1021.2
20260902112517 23 226 6.4 16.1 0.00 0.00 0.00 55 1021.3
20260902111517 23 219 3.2 9.7 0.00 0.00 0.00 56 1021.3
20260902110517 23 206 1.6 8.0 0.00 0.00 0.00 56 1021.4
20260902105517 23 244 3.2 11.3 0.00 0.00 0.00 55 1021.4
20260902104517 23 284 3.2 9.7 0.00 0.00 0.00 58 1021.5
20260902103517 23 197 3.2 12.9 0.00 0.00 0.00 57 1021.6
20260902102517 23 89 3.2 8.0 0.00 0.00 0.00 58 1021.6
20260902101537 23 75 4.8 11.3 0.00 0.00 0.00 60 1021.6
20260902100537 22 166 3.2 9.7 0.00 0.00 0.00 61 1021.7
20260902095537 22 101 3.2 11.3 0.00 0.00 0.00 63 1021.7
20260902094517 21 144 3.2 9.7 0.00 0.00 0.00 64 1021.9
20260902093517 21 106 3.2 11.3 0.00 0.00 0.00 64 1021.8
20260902092517 21 179 3.2 6.4 0.00 0.00 0.00 65 1021.8
20260902091517 20 120 3.2 9.7 0.00 0.00 0.00 66 1021.9
20260902090517 20 63 1.6 6.4 0.00 0.00 0.00 68 1021.9
20260902085517 20 94 1.6 4.8 0.00 0.00 0.00 69 1022.0
20260902084537 19 92 1.6 4.8 0.00 0.00 0.00 70 1021.9
20260902083517 19 115 1.6 4.8 0.00 0.00 0.00 72 1021.8
20260902082517 18 79 1.6 4.8 0.00 0.00 0.00 75 1021.8
20260902081557 17 305 0.0 3.2 0.00 0.00 0.00 76 1021.9
20260902080517 17 232 0.0 3.2 0.00 0.00 0.00 77 1021.8
20260902075517 17 212 1.6 3.2 0.00 0.00 0.00 76 1021.8
20260902074518 17 232 1.6 4.8 0.00 0.00 0.00 77 1021.6
20260902073517 16 169 1.6 4.8 0.00 0.00 0.00 80 1021.6
20260902072517 16 210 1.6 3.2 0.00 0.00 0.00 80 1021.5
20260902071517 16 186 0.0 3.2 0.00 0.00 0.00 80 1021.5
20260902070517 16 227 0.0 1.6 0.00 0.00 0.00 81 1021.5
20260902065517 16 232 1.6 4.8 0.00 0.00 0.00 82 1021.5
20260902064517 15 233 1.6 3.2 0.00 0.00 0.00 83 1021.3
20260902063517 15 216 1.6 4.8 0.00 0.00 0.00 85 1021.2
20260902062517 14 228 1.6 6.4 0.00 0.00 0.00 86 1021.0
20260902061517 14 227 3.2 4.8 0.00 0.00 0.00 86 1021.1
20260902060517 14 223 3.2 8.0 0.00 0.00 0.00 87 1021.2
20260902055517 14 219 4.8 8.0 0.00 0.00 0.00 87 1021.3
20260902054517 13 223 6.4 9.7 0.00 0.00 0.00 87 1021.3
20260902053516 13 225 6.4 11.3 0.00 0.00 0.00 88 1021.2
20260902052515 13 224 6.4 11.3 0.00 0.00 0.00 88 1021.2
20260902051557 13 219 4.8 8.0 0.00 0.00 0.00 88 1021.1
20260902050517 13 222 4.8 9.7 0.00 0.00 0.00 89 1021.1
20260902045517 13 220 3.2 6.4 0.00 0.00 0.00 88 1021.1
20260902044517 13 224 3.2 8.0 0.00 0.00 0.00 88 1021.0
20260902043517 13 221 3.2 6.4 0.00 0.00 0.00 88 1021.2
20260902042517 13 216 1.6 4.8 0.00 0.00 0.00 87 1021.1
20260902041517 13 159 0.0 4.8 0.00 0.00 0.00 87 1021.0
20260902040517 13 222 3.2 9.7 0.00 0.00 0.00 87 1021.1
20260902035517 14 222 3.2 8.0 0.00 0.00 0.00 87 1021.0
20260902034517 14 229 3.2 11.3 0.00 0.00 0.00 87 1021.1
20260902033517 14 217 4.8 9.7 0.00 0.00 0.00 87 1021.2
20260902032517 14 223 6.4 11.3 0.00 0.00 0.00 87 1021.0
20260902031517 14 224 6.4 12.9 0.00 0.00 0.00 87 1021.1
20260902030537 14 228 6.4 12.9 0.00 0.00 0.00 87 1021.1
20260902025517 14 223 6.4 11.3 0.00 0.00 0.00 87 1021.0
20260902024517 14 226 6.4 14.5 0.00 0.00 0.00 87 1021.1
20260902023537 14 223 6.4 11.3 0.00 0.00 0.00 87 1021.0
20260902022517 14 221 6.4 12.9 0.00 0.00 0.00 87 1021.0
20260902021517 14 224 6.4 11.3 0.00 0.00 0.00 87 1021.0
20260902020517 14 225 6.4 12.9 0.00 0.00 0.00 87 1021.0
20260902015517 14 218 6.4 9.7 0.00 0.00 0.00 86 1021.0
20260902014517 14 226 6.4 11.3 0.00 0.00 0.00 86 1021.0
20260902013517 15 225 6.4 11.3 0.00 0.00 0.00 86 1021.0
20260902012517 15 227 6.4 9.7 0.00 0.00 0.00 86 1021.1